一网星座-0575星 (ONEWEB-0575)

导读

ONEWEB-0575是英国一网公司(OneWeb)旗下低轨通信卫星,于北京时间2023年3月26日发射入轨,属于OneWeb全球低轨卫星星座组网卫星。该星座旨在为全球偏远地区、基础设施薄弱区域提供高性价比宽带互联网接入服务,同时拓展军事通信应用,可提供低延迟高速通信,支持海陆空多场景联网需求,助力OneWeb实现全球覆盖的组网目标,推动全球卫星互联网的普及部署。

Basic Information
目录编号:
56064
目录名称:
ONEWEB-0575
国际标识:
2023-043U
轨道中心:
EARTH
卫星名称:
一网星座-0575星
卫星全名:
一网星座-0575星 (ONEWEB-0575)
卫星状态:
在轨 (已飞行1266 天)
发射日期:
2023-03-26 UTC
国别 :
英国 (GB)
星等 :
--
This satellite is enrolled in the Space Conjunction Data Service (SCDS) and the current flight risk assessment level is: No High Risk
Orbit Information
数据来源 国际轨道数据 AOE轨道数据
星历时间 2026-09-12T03:02:07+0800
11小时前
查看轨道信息
2026-09-10T06:00:00+0800
2天前
查看轨道信息
半长轴 7575.893km 7575.888km
偏心率 0.0002201 0.0002322
轨道倾角 87.914° 87.914°
近地点辐角 90.380° 81.662°
升交点赤经 211.569° 211.939°
平近点角 269.758° 29.582°
近地点 1196.088km 1195.991km
远地点 1199.424km 1199.511km
周期 109.373分钟 109.373分钟
每日圈数 13.165945 13.165958
Detailed Information
平衡模式:
三轴稳定
覆盖范围:
全球
运营商:
一网卫星公司
运营商所在国:
英国
制造商(研发单位):
一网卫星公司
制造商所在国:
英国
使用方式:
暂无
Satellite Introduction
OneWeb卫星网络由648颗重约125公斤的微型卫星组成,运行在1200公里的轨道上。 每颗卫星都能够提供至少每秒8千兆位的吞吐量,以使用其高吞吐量的Ku频段有效载荷为家庭和移动平台提供互联网接入。该卫星仍在工作。
2D Orbit Map
3D Orbit Map
Orbit Altitude Analysis Chart
Orbit Inclination Analysis Chart
Orbit Comprehensive Analysis Chart
View Comprehensive Chart
Miss Distance Evolution Trend with All Objects
Collision Probability Evolution Trend with All Objects